Find Telstar 7

NORAD ID: 25922 Int'l Des: 1999-052 Owner: LSKY Country: US operational
HEOCIRCULAR

Live Position

Loading 3D Globe...

About Telstar 7

Description loading...

Upcoming Passes

Passes for default location (London). Set your location on the main map for personalized predictions.

Altitude History

Loading altitude history...

Two-Line Element Set

1 25922U 99052A 26104.41919823 .00000055 00000-0 00000+0 0 9994
2 25922 10.1155 51.9580 0020168 327.7096 222.6960 0.99016637 50625
Epoch: Apr 14, 2026 • Age: 27 hours

Current Status

Altitude 36161.5 km
Velocity 3.06 km/s
Sub-Earth Point -7.16°S, 116.83°W
Launch Date Sep 25, 1999
Age 26.5 years
Type other

Technical Details

Classification Payload
Mass 3790.00 kg
Dry Mass 1537.00 kg
Total Mass 3790.00 kg
Length 3.10 m
Diameter 2.40 m
Span 31.10 m
Shape Box + 2 Pan
Manufacturer LOR
Bus Type FS-1300
Phase Status Unknown Active Status
Owner/State LSKY/US

Most Searched